This is the latest recevied weather packets stored in our database for station/object W6MAF. If no packets are shown the sender has not sent any weather packets the latest 10 day(s).
| Time | Temp. | Humidity | Pressure | Rain* | Wind** | Luminosity | Snow |
|---|---|---|---|---|---|---|---|
| 1788615111 | 13.33° C | - | - | - | 4.92 m/s, 225° | - | - |
| 1788615110 | 13.33° C | 35% | - | 0 mm | 4.92 m/s, 225° | - | - |
| 1788614813 | 13.33° C | 35% | - | 0 mm | 4.02 m/s, 208° | - | - |
| 1788614515 | 13.33° C | 36% | - | 0 mm | 4.47 m/s, 205° | - | - |
| 1788614214 | 13.33° C | 36% | - | 0 mm | 4.47 m/s, 194° | - | - |
| 1788613917 | 13.33° C | 37% | - | 0 mm | 4.02 m/s, 210° | - | - |
| 1788613619 | 13.33° C | 38% | - | 0 mm | 3.58 m/s, 224° | - | - |
| 1788613321 | 13.33° C | 38% | - | 0 mm | 4.02 m/s, 214° | - | - |
| 1788613024 | 13.33° C | 39% | - | 0 mm | 4.02 m/s, 224° | - | - |
| 1788612726 | 13.33° C | 40% | - | 0 mm | 4.92 m/s, 245° | - | - |
| 1788612433 | 13.33° C | 40% | - | 0 mm | 3.58 m/s, 201° | - | - |
| 1788612127 | 13.33° C | 41% | - | 0 mm | 3.58 m/s, 225° | - | - |
| 1788611830 | 13.33° C | 41% | - | 0 mm | 4.47 m/s, 197° | - | - |
| 1788611532 | 13.33° C | 42% | - | 0 mm | 4.92 m/s, 211° | - | - |
| 1788611234 | 13.33° C | 42% | - | 0 mm | 4.47 m/s, 211° | - | - |
| 1788610936 | 13.33° C | 42% | - | 0 mm | 4.02 m/s, 232° | - | - |
| 1788610636 | 13.33° C | 42% | - | 0 mm | 4.47 m/s, 214° | - | - |
| 1788610338 | 13.33° C | 43% | - | 0 mm | 4.02 m/s, 228° | - | - |
| 1788610040 | 13.33° C | 43% | - | 0 mm | 4.47 m/s, 217° | - | - |
| 1788609743 | 13.33° C | 43% | - | 0 mm | 4.02 m/s, 218° | - | - |
| 1788609147 | 13.33° C | 43% | - | 0 mm | 4.02 m/s, 211° | - | - |
| 1788608846 | 13.33° C | 43% | - | 0 mm | 3.13 m/s, 232° | - | - |
| 1788608549 | 13.33° C | - | - | - | 4.47 m/s, 232° | - | - |
| 1788608549 | 13.33° C | 43% | - | 0 mm | 4.47 m/s, 232° | - | - |
| 1788608251 | 13.89° C | 43% | - | 0 mm | 4.02 m/s, 221° | - | - |
* Rain since midnight (hover to see other rain measurements)
** Current wind speed in m/s (hover to see current wind gust speed)